Wind_Speed
10 12 13 13 13 12 10 9 7 6 4 3 2 1 0 1 1 2 3 4 5 6 8 10 12 13 14 14 14 13 11 9 8 8 8 8 9 9 10 11 11 11 11 12 12 13 13 13 13 14 15 16 16 17 18 18 18 19 19 20 21 21 21 21 21 22 23 23 23 24 24 25 26 27 27 28 30 32 33 34 35 36 37 39 40 40 41 40
12 12 13 12 12 11 10 8 6 4 3 2 1 0 1 1 2 3 3 5 6 8 10 12 13 13 13 11 10 8 7 6 7 8 8 8 9 10 10 10 11 11 11 12 12 13 14 15 15 15 16 17 17 17 17 17 18 19 19 19 20 21 21 22 23 24 24 24 24 25 26 27 28 29 29 30 32 33 35 36 37 38 39 40 41 41 41 41
13 13 13 12 11 10 9 7 5 4 3 1 0 1 2 2 3 4 5 6 8 10 11 12 12 10 9 7 6 6 6 7 8 8 9 9 10 10 11 11 11 11 12 13 14 15 16 16 16 16 16 16 16 17 17 18 19 20 19 21 22 22 22 24 25 25 25 26 27 27 28 29 30 31 32 33 34 34 36 37 38 39 39 40 41 41 42 43
14 13 12 12 10 9 8 6 5 4 2 1 1 2 3 3 4 5 6 8 10 11 11 10 8 6 5 5 6 7 7 8 9 9 10 10 10 11 12 12 13 14 14 15 15 15 15 15 15 15 16 17 17 18 19 20 21 20 21 23 23 23 24 26 26 27 27 28 29 30 31 32 33 34 34 35 35 36 38 39 39 40 40 41 42 43 44 45
15 14 12 11 10 9 7 6 4 3 2 2 2 3 3 4 4 6 7 9 10 9 7 5 4 5 5 6 7 8 8 8 9 10 10 10 11 12 13 14 14 14 14 14 14 15 14 15 16 16 18 19 19 20 20 21 22 22 23 24 24 24 26 27 27 28 29 30 31 32 33 34 35 36 36 37 37 38 40 40 41 42 42 43 44 45 46 47
16 15 13 11 9 8 7 5 4 3 2 2 3 3 4 4 5 7 9 9 7 5 4 4 5 6 7 7 8 9 8 8 9 10 10 11 12 12 13 13 13 13 13 14 15 15 16 16 17 18 19 20 21 22 22 23 24 24 26 26 26 27 28 28 28 30 31 32 33 34 35 36 37 37 37 38 38 39 41 42 43 43 44 45 46 47 49 50
15 14 13 11 9 7 6 4 3 2 2 2 3 3 4 5 7 8 7 6 4 4 4 5 6 7 7 7 8 8 7 8 9 10 11 11 12 12 12 12 13 14 14 15 16 17 17 18 19 21 22 23 24 24 24 25 26 26 27 27 27 28 29 29 30 31 33 33 34 35 36 36 37 37 37 37 38 39 41 42 44 45 46 47 48 49 50 51
14 13 12 10 8 7 6 4 2 2 2 2 3 3 4 5 6 5 4 3 4 5 6 7 7 7 7 7 7 7 8 9 10 10 11 11 12 12 12 13 15 16 16 17 18 20 21 22 23 24 25 25 25 25 25 26 26 26 26 27 28 28 29 29 29 30 31 32 32 33 34 34 35 36 36 38 39 40 41 43 45 46 47 48 49 51 52 53
13 13 12 10 8 7 6 4 1 1 2 3 3 3 4 4 3 3 4 5 7 7 7 7 7 6 6 6 8 9 10 10 11 11 11 12 13 13 14 15 16 18 19 20 22 23 24 25 25 25 24 24 24 24 24 25 25 24 25 26 26 27 27 28 28 28 29 30 31 32 33 34 35 36 37 38 40 41 43 44 46 47 49 50 51 52 53 54
13 12 11 10 8 7 6 3 1 1 2 3 3 3 3 3 4 6 7 7 7 7 7 7 6 6 7 8 10 11 11 11 12 12 12 13 14 15 16 17 19 21 22 23 24 24 24 24 24 23 23 22 22 22 22 22 23 23 23 24 25 26 27 28 29 29 30 31 32 34 35 36 36 37 38 40 41 42 44 45 46 48 50 52 53 53 54 55
12 12 12 10 8 7 6 3 1 2 3 2 1 3 5 6 8 8 8 7 7 7 7 7 7 8 9 10 11 11 12 12 13 13 14 15 17 18 19 20 22 23 23 23 23 23 22 22 21 21 21 20 20 21 21 22 23 23 24 25 26 28 29 30 31 32 33 34 36 37 38 39 38 38 40 42 43 45 46 46 48 49 51 53 54 55 56 57
11 11 12 11 9 8 6 3 3 3 2 2 4 7 8 9 9 9 8 7 7 7 7 8 9 10 11 11 11 12 13 13 14 15 16 18 20 20 20 21 21 21 21 21 21 21 21 20 20 21 20 21 21 21 23 24 25 26 27 28 29 31 32 33 35 36 37 38 39 41 41 40 39 41 43 45 46 47 48 48 49 50 51 53 54 56 57 58
10 11 12 11 9 7 5 4 5 4 4 7 9 10 10 10 9 9 8 7 8 8 10 10 10 11 11 11 12 13 14 14 16 17 17 18 19 19 20 20 20 21 21 21 21 20 21 21 21 22 22 22 24 24 26 27 27 28 29 31 33 34 35 36 38 39 39 40 41 43 42 38 39 43 44 46 47 48 49 49 50 51 52 53 54 56 57 58
11 12 12 10 8 7 6 6 6 6 9 11 12 12 11 11 9 9 9 10 11 11 12 11 11 11 11 12 13 14 15 15 16 17 18 18 19 19 20 21 20 21 21 21 22 20 21 22 21 23 24 24 26 27 28 30 30 32 33 34 36 36 37 38 40 40 41 42 42 45 44 40 40 43 46 48 48 49 50 50 51 52 53 54 54 55 56 58
13 12 11 10 9 9 8 8 9 11 13 14 13 13 12 11 11 11 12 13 13 13 12 11 11 11 11 13 14 15 16 17 17 18 18 18 19 20 19 20 19 20 21 20 22 21 21 23 23 24 26 26 28 29 30 32 33 35 35 36 37 37 37 39 41 42 42 44 44 46 48 44 42 44 48 50 51 51 52 52 52 53 54 55 56 56 57 57
14 13 12 12 11 10 10 12 14 15 15 15 14 13 13 13 14 14 14 13 12 12 11 11 12 12 13 15 16 17 18 18 18 18 19 18 19 21 20 19 19 19 20 20 22 22 22 25 26 27 28 29 31 32 32 34 34 35 36 36 37 38 38 39 41 44 44 46 47 48 50 48 46 48 50 52 53 54 54 54 55 56 57 58 58 58 58 58
15 15 14 13 12 13 14 17 17 17 16 15 15 15 16 16 15 14 12 11 11 11 12 12 14 15 16 17 17 17 18 18 18 17 19 19 17 19 20 20 20 19 20 21 23 25 25 27 29 29 30 31 33 34 33 34 34 35 36 37 38 39 41 41 41 44 45 47 48 49 52 50 49 50 52 54 56 55 55 56 57 58 59 59 59 60 60 61
16 15 13 13 15 17 19 19 18 18 16 16 17 18 17 16 14 12 11 10 12 13 15 16 16 17 17 17 17 17 18 18 19 17 17 19 18 19 20 21 22 23 23 24 25 26 27 28 30 30 31 32 33 33 34 34 35 36 37 37 38 39 40 41 42 43 45 46 47 49 52 51 50 51 53 55 56 56 56 57 57 58 58 59 60 60 61 63
15 14 15 17 20 21 21 20 18 17 17 18 19 19 17 14 12 11 11 13 16 17 17 17 17 17 17 17 17 17 18 17 19 19 17 18 19 20 21 22 23 25 25 26 26 27 27 28 29 30 30 31 31 32 34 35 35 36 37 37 38 38 39 40 42 43 44 46 47 49 52 51 50 51 53 55 55 56 56 56 57 58 59 60 61 62 62 63
15 17 20 22 23 22 21 20 19 19 19 20 20 18 15 12 11 12 14 17 19 18 17 17 17 17 16 17 17 17 18 18 18 20 19 18 20 21 21 22 23 24 25 26 26 27 27 27 28 28 29 30 30 32 33 34 35 36 36 38 38 39 39 39 41 43 45 47 48 50 52 51 50 51 52 54 55 55 55 55 56 58 60 61 62 63 63 62
19 22 24 24 23 22 21 21 22 23 22 20 18 16 14 12 13 15 17 19 18 17 16 16 16 16 16 16 17 17 17 18 18 18 19 19 21 22 22 23 23 24 24 25 25 26 27 27 27 28 28 29 31 32 33 35 36 37 38 39 40 41 42 41 42 44 46 48 49 50 53 51 51 52 52 54 55 54 55 56 58 60 61 62 63 63 62 61
24 25 25 24 23 23 23 24 25 24 22 19 17 15 15 16 17 17 17 17 16 15 15 15 15 16 17 16 17 18 17 18 18 18 20 20 21 23 22 23 24 24 24 25 26 26 27 28 28 28 29 31 33 35 37 38 39 39 41 43 43 43 46 45 43 45 48 49 49 51 53 51 50 52 52 54 55 55 57 58 60 61 62 63 63 63 62 63
27 26 26 25 25 26 26 26 24 22 20 19 17 17 18 18 17 16 16 15 14 13 13 13 14 16 17 17 17 18 18 19 20 20 21 21 21 22 22 23 24 24 25 27 27 28 29 30 30 31 33 35 37 39 41 41 41 41 43 46 46 45 48 48 47 48 50 51 51 53 54 52 51 52 52 55 56 57 59 60 61 62 62 62 62 63 64 65
27 26 26 27 27 27 26 24 22 20 20 20 19 19 18 17 16 15 14 14 14 13 13 14 14 15 17 17 18 20 20 20 21 21 21 21 22 23 23 24 25 25 27 29 29 30 33 34 35 36 38 40 41 42 44 45 43 42 44 46 46 46 48 49 50 51 51 51 53 54 56 55 53 52 53 55 56 57 59 60 61 61 61 62 62 63 64 65
27 27 28 29 28 26 24 22 20 20 20 20 19 18 16 15 14 14 13 13 13 14 15 15 15 16 18 18 19 21 21 20 21 21 21 23 24 25 24 26 28 28 31 32 32 35 37 38 39 40 41 42 43 44 45 47 46 44 44 46 46 47 49 50 52 53 53 52 54 55 58 58 54 53 55 55 56 58 60 61 62 62 63 63 64 64 64 64
28 30 30 29 27 25 22 21 20 20 20 19 17 15 14 14 13 13 14 13 13 14 15 16 17 19 19 20 20 20 20 21 22 23 24 25 26 27 27 28 31 32 35 36 37 39 40 41 41 42 42 44 45 46 47 48 48 46 47 47 48 50 51 52 54 54 53 55 56 53 57 60 57 54 54 55 58 60 61 62 63 64 65 66 66 66 65 65
31 31 30 28 25 23 21 20 20 19 18 17 15 14 13 12 12 13 13 14 15 15 15 17 19 20 20 20 20 19 21 22 23 25 26 26 28 30 30 32 33 35 38 39 39 40 41 42 42 43 44 45 47 47 48 49 49 49 50 51 51 52 54 55 55 54 53 56 56 51 54 60 60 56 54 56 59 61 62 63 65 66 67 68 68 68 67 67
32 31 28 26 24 22 21 20 19 17 16 15 14 13 13 12 12 12 13 14 16 17 16 18 20 20 19 20 20 21 24 25 23 26 28 29 32 34 34 35 35 36 38 40 40 41 43 43 44 45 46 48 48 49 50 51 52 53 54 55 55 56 57 57 57 54 54 58 56 51 54 59 61 59 56 57 60 61 63 65 67 68 68 69 69 69 69 69
31 29 26 24 22 21 19 18 17 15 14 13 13 12 12 13 12 12 13 15 17 18 19 20 20 20 20 21 24 25 26 28 28 29 31 32 34 36 36 37 38 37 37 39 41 43 44 45 45 47 49 50 51 51 53 53 55 56 57 58 58 58 59 58 58 56 56 60 56 53 55 58 60 58 55 59 61 61 64 66 68 69 69 69 70 70 70 68
29 27 24 22 20 19 17 16 15 14 13 12 12 12 12 13 13 13 15 17 18 19 21 21 21 22 23 23 25 27 27 30 31 32 33 34 35 37 38 39 39 38 37 39 42 44 46 47 48 50 52 54 54 54 55 56 57 58 58 60 60 59 59 59 59 57 58 59 56 55 56 58 60 58 56 60 61 62 65 66 68 68 69 70 70 71 71 70
27 24 22 20 19 17 16 15 14 12 12 11 11 12 12 14 14 14 16 18 18 19 20 21 22 22 23 24 25 27 29 30 32 33 34 35 36 38 38 39 40 40 40 41 43 46 48 50 51 53 54 56 56 55 56 58 58 58 60 61 63 62 61 60 58 57 59 59 57 56 56 57 61 60 59 62 62 64 65 66 68 68 69 71 72 72 70 68
25 22 20 19 17 16 15 14 12 11 11 11 11 12 13 14 15 16 17 18 19 20 20 21 22 22 24 26 27 29 30 30 32 33 34 35 37 39 40 41 42 43 44 44 46 47 49 51 52 54 56 57 58 57 57 58 58 60 61 62 64 65 64 63 60 59 61 62 60 58 57 58 60 60 63 65 65 65 66 67 68 68 70 72 70 67 64 65
22 20 19 17 16 15 14 13 12 11 12 12 12 13 14 15 16 17 18 19 19 20 20 20 22 23 25 27 29 29 30 31 33 34 36 37 39 41 42 44 45 47 48 49 48 48 50 52 53 55 57 57 59 59 60 60 60 61 62 62 63 62 63 64 63 62 64 66 66 60 59 61 61 62 65 66 66 67 67 67 68 69 70 68 64 62 63 67
20 18 17 16 15 14 13 12 11 11 12 13 13 14 15 16 17 18 18 19 19 19 20 21 22 24 26 27 29 30 30 32 34 35 37 39 40 43 44 46 47 48 50 51 52 51 52 54 55 56 58 59 59 61 62 63 63 63 62 62 61 59 60 63 64 64 66 69 69 63 62 64 64 66 68 67 67 68 67 68 69 68 64 61 61 64 67 70
18 17 16 15 14 14 13 12 12 12 13 14 15 15 16 16 16 17 18 19 19 19 20 22 23 25 27 28 29 30 31 33 35 37 38 39 41 44 45 47 48 49 51 53 54 54 53 54 57 58 59 60 60 61 63 64 64 64 62 61 61 59 59 61 64 64 65 70 71 66 64 66 67 70 70 68 69 69 69 70 67 61 58 61 64 67 70 73
17 16 15 15 14 13 13 13 14 14 14 14 15 15 16 16 16 17 18 19 19 20 21 22 24 26 27 28 29 31 33 34 36 37 39 40 42 44 46 47 49 50 52 54 56 56 55 54 57 59 59 61 61 61 63 64 64 64 63 61 61 60 60 61 64 64 63 69 72 68 67 68 70 72 71 70 71 70 70 70 64 58 59 62 66 69 75 80
17 16 15 14 14 13 13 13 14 14 14 14 15 15 15 15 16 17 17 18 19 20 21 22 24 25 27 28 30 32 33 34 36 37 39 40 42 44 46 48 49 51 53 56 57 59 59 56 57 60 60 61 62 62 63 64 64 64 63 62 62 62 62 62 64 65 65 70 73 71 69 71 72 73 72 71 70 71 73 69 62 60 63 68 73 79 83 85
16 15 15 14 13 13 13 13 14 14 13 13 15 15 14 15 16 16 17 17 18 20 21 22 24 25 26 28 30 31 33 34 35 37 39 40 42 44 46 48 50 52 54 57 59 61 62 60 59 61 62 62 63 63 64 64 64 64 63 63 63 64 64 64 64 66 67 72 75 74 74 74 74 73 71 70 70 73 72 67 64 67 73 79 83 86 87 88
15 15 14 13 13 13 13 13 13 13 12 12 14 13 13 14 15 15 16 17 18 19 21 22 24 25 27 28 30 31 32 34 35 37 38 40 42 43 45 47 50 53 55 58 60 62 65 65 64 63 63 63 63 65 65 65 66 66 65 65 64 63 63 65 65 64 66 72 75 77 79 79 76 73 71 71 74 75 72 71 74 79 82 85 87 88 89 90
15 15 14 13 13 13 13 13 12 12 12 12 12 12 12 13 13 15 15 16 18 19 21 22 24 25 27 28 30 31 32 33 35 36 37 39 41 43 44 47 50 53 55 58 61 63 65 68 68 66 64 64 65 67 67 67 68 69 68 66 64 63 63 66 67 63 65 71 73 76 82 82 75 73 73 75 78 78 77 80 83 84 86 87 89 90 90 90
14 14 14 13 12 12 12 12 11 11 12 11 11 11 11 12 13 14 15 17 18 20 21 23 24 25 27 28 30 31 32 33 34 35 36 38 40 43 45 47 50 53 56 58 61 64 66 69 71 70 67 65 66 69 70 70 71 70 69 67 65 65 65 68 71 68 67 71 70 73 82 82 75 74 77 78 80 81 82 84 85 86 87 88 88 88 88 88
13 13 13 12 12 12 11 11 11 11 11 10 9 9 10 11 12 14 15 16 18 20 21 22 24 25 27 28 29 31 32 32 33 35 36 38 40 43 45 47 50 53 56 59 61 63 66 70 72 72 70 67 67 70 71 72 72 70 68 68 67 66 66 68 71 71 71 72 70 73 81 81 76 77 79 80 82 83 83 84 85 86 85 85 85 85 85 84
12 12 11 11 11 11 10 10 11 10 10 9 8 9 10 10 11 13 15 16 18 20 21 22 24 25 26 28 29 30 31 32 33 35 36 38 41 43 46 48 50 53 56 59 62 63 66 70 73 73 70 67 67 69 70 71 72 71 69 68 68 67 67 68 69 71 75 74 72 76 82 81 78 79 79 80 82 82 81 82 83 83 83 82 83 82 81 80
13 12 11 10 11 11 11 11 10 9 9 8 7 8 9 10 11 12 15 17 18 19 21 22 23 25 26 28 29 30 32 33 34 35 36 39 41 44 46 48 51 54 57 59 62 64 68 72 75 76 74 72 71 72 73 74 75 74 71 69 68 68 68 69 69 71 76 77 75 77 82 82 80 78 78 79 81 80 80 80 80 81 82 82 82 80 79 78
13 12 11 11 10 11 12 11 9 8 8 7 7 7 8 10 12 13 14 16 18 19 20 22 22 24 25 27 29 30 32 33 34 36 37 39 42 44 46 48 51 54 57 59 61 64 68 73 75 76 77 77 76 76 77 79 79 78 75 71 70 69 69 70 70 72 77 82 80 78 81 84 82 79 79 81 82 82 81 80 80 81 81 81 80 78 77 77
13 12 11 11 10 10 12 11 8 7 7 6 7 8 8 9 11 13 14 16 18 19 19 21 22 23 24 26 28 29 31 33 35 36 38 40 42 44 46 49 52 55 57 59 61 63 67 72 74 75 75 76 76 75 77 79 80 80 79 75 72 71 72 72 72 74 79 84 84 80 81 86 85 82 83 84 83 83 83 82 81 81 80 79 77 76 76 77
13 12 11 10 10 10 11 9 7 7 6 6 7 8 9 10 11 13 14 15 17 18 19 20 21 22 24 25 27 29 31 33 35 37 39 40 43 45 47 50 52 55 57 59 61 62 66 70 74 75 75 76 76 75 76 78 80 80 80 79 75 74 75 75 75 76 79 83 86 84 83 86 87 86 86 86 84 84 83 82 81 79 78 77 76 76 76 78
12 12 10 9 10 10 10 8 7 6 6 7 8 9 10 11 11 13 14 15 16 18 19 20 21 23 24 25 27 29 31 33 35 37 39 41 43 45 48 51 53 55 57 58 60 62 65 69 73 75 76 77 77 76 78 79 80 81 81 80 78 77 78 78 77 78 80 82 85 86 85 86 87 87 87 85 84 83 81 80 78 77 76 76 76 77 79 81
11 11 10 9 9 9 8 7 7 7 7 8 9 9 10 11 12 13 14 15 16 17 18 20 21 23 25 26 28 29 31 33 35 37 39 42 44 46 48 51 53 55 56 58 60 62 65 68 72 75 76 78 78 77 79 81 82 82 81 81 81 80 80 80 79 79 83 84 85 87 88 87 86 87 87 85 83 81 79 77 76 75 76 77 78 80 82 84
10 9 9 8 8 8 8 7 7 8 8 9 10 10 11 12 13 14 15 15 17 18 19 20 22 23 25 27 29 31 33 34 36 38 40 42 44 47 49 51 53 54 56 59 60 62 65 68 71 74 76 78 79 79 80 82 84 84 83 82 83 83 82 82 81 81 85 88 89 89 90 90 89 89 88 84 81 80 78 76 76 77 78 79 81 84 86 85
9 8 8 7 7 7 7 8 8 8 9 10 11 12 12 13 14 15 15 16 17 18 19 20 21 24 26 28 29 31 33 35 37 39 41 43 45 47 49 51 53 54 56 59 61 63 65 68 71 74 76 79 81 80 81 83 85 85 86 85 85 86 86 84 82 82 86 90 92 93 94 93 93 91 88 84 81 80 78 77 77 79 80 82 85 87 88 86
8 7 7 6 6 7 7 8 8 9 10 11 12 13 14 14 15 15 16 16 17 18 19 20 21 24 26 28 30 32 34 35 37 40 41 43 45 47 49 51 53 55 57 59 61 63 66 68 71 74 76 79 82 82 83 85 87 88 89 89 88 88 88 87 84 85 87 90 92 94 95 94 94 91 89 87 84 81 80 78 79 81 83 85 88 89 88 85
Wind_Direction
150 146 145 142 140 139 137 138 141 140 138 134 137 173 228 2 350 354 350 348 345 337 329 324 321 319 318 316 316 317 319 325 335 342 345 348 346 349 353 351 348 344 338 333 331 329 327 326 324 324 325 323 320 319 320 320 320 320 321 321 319 317 315 314 313 313 312 309 307 304 303 302 299 296 295 292 291 291 291 291 291 292 291 290 290 288 287 286
155 150 148 146 143 139 137 136 133 129 122 116 120 151 51 34 12 3 352 348 340 332 326 323 321 320 320 320 324 330 335 344 352 353 356 358 357 357 353 346 342 337 332 331 330 329 326 323 322 323 324 323 323 325 327 328 328 329 329 325 322 320 318 317 317 316 314 310 307 305 302 299 296 294 294 292 291 291 291 290 291 291 290 290 289 287 286 285
158 153 150 149 147 144 138 131 126 122 115 115 141 74 40 19 5 356 348 343 335 330 327 324 324 325 330 337 345 354 358 3 5 4 4 2 355 350 345 340 338 334 333 331 328 327 325 324 326 329 330 331 333 334 335 336 335 333 330 325 322 321 320 319 317 315 312 309 307 304 301 299 297 296 295 293 292 291 290 290 290 290 289 289 287 286 284 283
163 158 157 153 150 146 138 131 126 122 116 124 102 55 29 14 1 351 343 338 333 330 327 328 335 344 357 7 12 16 16 13 10 5 2 356 350 347 345 342 337 335 333 330 330 331 331 335 339 340 339 337 336 335 336 337 334 330 326 323 322 320 319 318 315 312 309 306 304 302 300 298 297 296 295 294 293 292 291 290 290 290 289 288 287 286 284 282
166 164 164 157 153 149 142 133 125 116 111 106 66 42 23 9 355 347 341 336 333 332 336 349 8 19 23 26 28 28 21 13 7 3 359 353 349 347 345 341 338 337 337 339 342 342 340 343 343 341 339 336 335 335 334 334 330 325 323 322 320 318 316 314 310 307 305 303 302 300 298 297 297 296 295 295 294 293 292 292 291 290 290 289 288 286 284 283
168 166 163 157 155 152 144 133 117 103 96 81 54 36 16 2 350 344 338 336 340 350 14 31 38 41 37 33 32 29 17 8 6 2 355 349 348 347 348 347 345 345 346 349 348 343 340 339 337 336 336 334 334 335 331 328 327 322 321 320 317 315 312 309 306 303 302 301 300 299 299 298 298 297 297 296 295 294 293 293 292 291 290 288 287 286 284 284
169 166 161 158 158 155 151 139 112 94 91 70 48 30 11 357 347 341 340 349 15 41 54 53 49 48 42 34 31 25 11 3 4 359 353 352 352 356 358 352 347 347 346 345 341 337 336 335 334 333 333 333 333 332 328 326 325 322 320 319 315 312 309 307 306 304 302 302 301 301 300 299 299 298 297 296 295 294 293 292 291 290 288 287 286 285 284 283
173 168 162 161 161 161 160 149 117 91 91 64 43 24 5 352 344 347 8 49 68 67 65 61 53 45 39 34 29 18 7 5 6 3 1 0 359 1 358 347 342 341 339 335 333 334 334 334 334 334 334 334 333 330 328 326 324 323 321 318 315 313 311 309 309 307 305 304 303 302 300 299 298 298 297 295 294 293 292 290 289 288 287 286 285 284 284 283
179 173 166 166 169 169 168 160 142 99 91 60 38 15 0 357 9 55 83 84 81 75 67 61 53 44 37 28 25 20 15 16 15 11 8 2 356 353 348 341 337 334 334 334 335 336 337 336 336 336 336 335 333 330 329 327 325 324 322 319 317 314 312 311 310 309 306 304 303 301 300 299 298 297 295 293 292 291 289 288 288 287 287 286 286 285 285 284
184 178 171 172 176 175 172 172 182 122 89 58 29 12 27 66 92 99 96 90 85 78 68 59 51 42 34 29 31 29 24 23 17 8 0 352 346 343 341 339 336 336 337 338 338 339 339 339 339 340 340 338 335 333 332 329 327 325 323 319 317 316 314 311 309 307 305 303 302 302 302 301 299 297 294 293 292 290 288 288 288 288 288 288 287 286 286 285
186 183 176 176 181 179 176 182 170 123 92 63 59 85 102 108 108 106 99 93 85 76 67 58 50 45 43 40 38 29 21 17 8 358 350 346 343 342 341 341 340 342 343 343 344 346 347 348 348 347 346 343 338 336 334 329 326 324 322 320 317 316 314 310 307 306 305 304 302 302 303 303 301 298 295 294 293 290 289 289 289 289 289 288 288 287 286 286
182 181 178 179 181 179 180 177 142 123 109 112 117 115 117 114 110 102 94 87 79 74 66 60 57 53 48 40 31 20 12 5 356 350 346 346 346 346 348 351 354 356 357 357 358 358 357 356 354 352 347 342 338 335 333 329 327 323 320 319 316 315 313 309 307 307 307 305 304 304 304 306 304 299 297 296 295 294 293 293 291 290 289 288 288 288 287 286
174 174 176 179 179 180 176 152 134 132 131 127 124 122 118 111 104 96 87 79 75 73 67 62 57 50 39 27 20 11 2 355 352 352 354 357 360 3 9 11 12 11 7 6 5 1 358 356 352 350 344 339 337 332 331 328 325 322 319 318 316 315 314 311 310 309 308 307 307 305 305 309 306 301 299 297 296 296 296 296 294 292 291 290 289 288 288 287
166 167 172 174 174 171 156 142 141 141 134 129 125 120 113 105 98 91 86 82 77 72 65 56 48 41 26 15 12 6 3 5 10 15 17 19 19 20 22 20 17 13 8 5 3 357 352 350 346 345 342 337 333 328 326 324 322 320 320 318 317 317 316 314 313 311 311 310 309 307 307 310 307 302 299 298 299 299 298 297 296 294 293 291 290 290 289 288
157 159 161 157 155 151 147 146 144 139 132 126 121 114 107 100 93 89 85 81 74 67 58 45 36 30 19 18 21 23 27 31 33 33 30 28 25 22 20 17 16 11 5 1 358 353 345 342 339 338 336 333 329 326 323 323 322 321 321 320 319 319 319 317 315 313 313 312 311 309 308 311 309 304 301 301 302 301 300 300 298 296 294 293 293 292 290 289
148 149 146 142 143 145 147 145 139 133 126 121 115 108 103 98 93 89 83 76 68 58 47 38 34 34 35 40 43 43 43 40 38 35 30 25 23 20 16 12 9 4 360 354 350 347 342 339 337 334 330 329 329 328 326 325 325 323 323 322 322 321 320 319 315 313 313 312 312 310 308 310 310 305 303 303 303 301 301 300 298 297 296 295 294 292 291 290
142 142 141 140 143 145 143 137 132 127 122 118 112 106 102 97 93 87 79 72 63 54 48 49 53 54 53 52 51 47 43 38 35 32 28 22 16 13 10 7 2 357 352 349 345 342 339 336 336 334 331 330 330 330 328 327 326 324 324 323 322 321 319 318 315 313 312 311 311 308 307 309 308 305 304 302 300 300 300 299 298 296 295 294 293 292 291 291
140 142 142 143 143 140 135 131 128 125 122 118 112 107 102 96 91 82 73 69 67 66 65 65 64 62 57 52 48 43 38 35 30 27 22 17 11 5 2 360 357 354 349 346 343 341 339 337 335 335 334 333 331 329 329 328 327 325 324 322 320 319 317 315 313 312 311 310 310 308 306 307 306 305 304 301 300 300 299 298 297 297 296 295 294 293 292 291
143 145 143 140 137 133 130 128 126 124 121 117 112 106 100 93 86 78 76 79 78 76 72 67 63 59 54 47 42 36 31 29 26 23 17 12 7 2 358 355 352 351 349 346 344 342 341 338 337 336 334 332 330 329 328 326 325 324 322 320 319 319 318 315 312 311 311 314 316 310 306 306 305 304 303 301 300 300 299 299 298 298 296 295 294 294 293 293
146 143 138 135 132 130 129 128 126 122 118 114 110 105 99 90 84 87 89 86 81 76 71 64 58 53 47 41 36 31 26 21 18 15 12 7 4 1 359 356 352 350 349 347 344 343 342 339 337 336 334 332 331 329 328 327 326 324 322 322 321 320 322 319 315 314 314 319 322 313 306 308 308 307 305 303 303 302 301 301 300 298 297 296 296 296 296 296
140 137 133 131 129 128 127 126 124 119 115 112 108 104 100 95 94 95 90 84 78 74 68 59 51 45 40 36 31 26 21 18 14 9 8 5 3 2 1 358 354 352 351 348 345 344 343 342 340 339 336 333 333 332 331 330 329 327 325 325 325 323 325 326 320 317 316 320 324 314 309 314 313 311 309 307 306 305 304 303 301 300 299 300 300 299 299 299
135 133 131 129 127 126 124 123 119 116 113 110 106 104 103 101 97 91 85 81 76 69 63 55 46 39 35 30 26 24 20 18 15 12 11 8 5 3 1 358 355 354 353 351 349 348 346 345 343 342 339 337 337 336 335 335 332 331 328 328 329 326 327 330 324 320 319 321 324 317 313 318 317 314 312 309 308 307 305 304 302 302 303 303 303 303 303 303
133 131 130 128 127 125 123 120 116 112 109 106 106 106 104 100 94 87 82 78 71 63 57 50 42 36 32 28 25 22 20 18 15 13 12 10 7 5 2 360 358 355 354 355 352 350 349 348 347 345 344 343 341 339 338 337 335 333 330 330 331 328 327 330 328 325 325 324 324 319 317 322 321 317 315 310 310 310 307 306 305 306 305 305 305 305 306 306
132 131 129 128 127 125 121 118 114 110 107 108 109 107 102 97 90 84 77 69 62 56 49 44 40 35 31 28 26 23 20 18 16 14 12 10 9 8 6 3 1 358 357 358 355 353 352 351 350 348 346 345 342 341 339 338 338 334 331 330 330 328 326 327 327 329 331 329 324 320 320 325 325 319 315 312 312 311 308 308 308 308 307 307 308 307 307 307
131 130 129 128 126 123 119 116 113 110 111 111 110 105 99 92 83 73 66 59 54 50 45 41 38 36 32 29 28 25 20 17 17 16 14 13 12 11 10 8 6 3 1 0 357 355 354 352 351 349 346 345 342 342 340 339 340 336 332 331 330 329 329 328 328 330 334 333 328 323 320 325 329 321 316 316 314 311 310 310 309 308 309 309 309 309 309 308
131 130 129 127 124 120 117 114 113 114 114 112 107 102 94 84 73 64 57 52 50 49 44 39 37 35 32 31 29 25 22 20 19 18 18 17 15 13 13 12 9 6 3 1 357 354 354 352 351 349 347 345 343 343 342 340 340 338 336 334 332 332 332 331 330 331 334 334 332 326 317 322 330 325 319 319 315 312 311 310 309 309 310 311 312 311 310 309
131 129 127 124 121 118 115 114 114 115 113 109 102 93 83 74 66 58 52 49 50 50 45 41 39 36 33 33 31 27 27 26 22 21 21 18 17 15 13 13 10 7 3 360 357 354 354 353 351 350 348 346 345 345 344 342 341 340 339 337 336 335 335 334 333 332 333 334 334 327 317 321 328 327 322 320 315 313 312 310 310 311 312 312 313 312 311 310
129 127 125 122 118 116 115 114 114 114 110 103 94 84 75 68 61 55 52 50 50 50 46 44 41 38 36 35 33 31 30 29 26 25 23 19 17 15 12 11 9 7 4 1 358 355 354 354 352 351 349 348 348 347 345 344 343 342 340 339 338 337 337 335 335 335 334 335 335 328 321 323 327 327 323 318 316 314 313 312 312 312 312 312 312 311 310 310
127 125 122 119 117 115 115 116 114 112 106 97 89 80 70 63 59 57 56 53 51 49 45 44 43 41 40 36 34 34 31 29 27 25 23 20 17 14 11 9 8 9 7 3 360 356 355 355 353 352 351 350 350 349 347 345 344 342 341 340 340 338 338 337 336 336 335 336 335 329 326 323 325 328 322 317 317 315 313 312 312 312 312 312 310 309 309 308
126 123 121 118 117 117 117 116 114 109 102 93 83 73 66 62 60 60 60 55 51 49 45 44 43 42 41 38 35 34 31 28 25 22 20 18 15 13 11 9 8 10 10 7 4 359 356 356 354 353 352 351 351 350 347 346 345 342 340 340 340 339 338 338 338 336 336 338 335 329 329 324 323 327 322 318 318 315 314 313 312 313 312 310 309 309 308 307
124 121 120 118 118 118 117 114 111 104 96 88 78 69 66 66 63 62 60 56 54 52 49 46 44 42 40 38 35 33 30 27 25 22 20 18 16 14 12 9 8 8 9 9 6 0 356 355 354 353 352 350 350 350 348 347 345 343 341 339 338 339 339 339 339 337 337 339 335 332 332 325 323 326 322 320 320 317 316 315 314 313 312 310 309 308 308 308
123 121 120 119 118 117 113 110 105 97 87 80 75 71 70 70 67 64 59 56 56 54 50 47 45 43 39 37 33 30 28 26 24 22 20 18 16 14 10 8 6 4 5 6 6 1 356 354 353 351 351 350 349 349 348 347 346 344 342 339 338 338 339 340 342 339 339 340 338 334 332 328 326 325 322 322 321 319 318 317 316 314 312 311 309 308 308 306
122 121 120 118 117 112 108 105 98 89 82 77 77 76 75 73 69 65 61 58 56 53 49 46 43 41 38 35 31 28 26 24 22 21 19 17 15 13 10 8 5 3 2 2 4 2 355 353 352 351 351 351 350 349 348 348 347 346 344 341 339 337 336 339 341 340 339 341 342 338 332 329 328 326 324 324 322 321 320 318 316 314 312 312 310 308 305 301
121 119 118 115 111 107 102 98 92 86 81 80 81 80 78 74 68 65 62 58 56 53 49 45 41 39 36 33 30 27 25 23 21 20 18 17 15 13 10 8 6 3 1 1 1 2 358 354 353 353 352 352 352 350 349 349 348 348 346 343 340 336 333 335 338 338 336 338 344 342 333 329 328 328 328 326 324 322 320 318 316 315 314 311 308 306 302 300
120 117 114 111 106 102 97 92 89 86 84 84 85 82 78 74 70 66 62 57 53 50 47 43 39 36 34 30 28 26 24 22 21 19 18 16 14 13 10 8 6 3 1 0 0 2 1 357 354 354 353 352 353 351 350 350 349 348 347 344 341 338 334 335 339 340 333 334 342 343 335 331 328 329 330 327 324 322 319 319 318 314 311 307 305 304 303 303
118 114 110 108 103 99 95 92 89 87 87 88 87 83 78 73 68 64 59 54 51 46 43 40 36 34 32 29 27 24 23 22 20 19 17 15 14 12 10 8 6 4 2 1 360 0 3 0 355 354 353 351 352 352 351 351 350 349 348 345 343 341 337 335 340 342 334 332 340 342 336 332 329 330 331 327 324 322 320 319 317 312 308 306 304 304 303 302
114 112 108 105 101 97 94 92 91 90 89 89 87 82 77 72 66 61 55 51 48 44 41 38 34 32 30 28 26 24 22 21 20 19 17 14 13 11 9 7 6 5 3 1 0 359 1 2 357 354 353 352 352 353 353 352 350 349 348 345 344 344 341 337 337 340 335 332 338 341 336 332 331 331 330 327 324 321 320 318 315 311 309 307 307 306 306 305
113 111 107 103 100 97 95 93 93 94 92 89 85 80 75 70 63 58 53 49 46 42 39 37 33 31 29 27 25 23 21 21 20 18 16 13 12 10 8 7 6 5 3 1 1 359 359 0 358 355 354 353 353 354 354 354 352 350 348 347 345 345 344 342 338 337 334 330 334 339 336 333 333 332 329 326 323 320 320 317 315 313 312 311 310 308 307 306
113 109 104 101 99 96 96 96 94 95 93 88 84 78 73 67 60 56 51 46 44 40 37 34 31 29 27 24 24 22 21 20 18 17 15 12 11 9 6 6 5 5 4 2 1 360 358 359 359 357 356 354 353 353 354 355 353 351 350 349 348 346 345 344 342 338 333 330 331 335 336 335 334 332 327 324 323 322 320 319 317 316 314 312 310 308 307 307
113 108 101 97 96 96 97 97 95 94 91 85 81 76 69 64 58 52 48 43 40 37 34 32 29 27 25 23 22 21 20 19 17 15 14 11 9 7 5 4 4 4 4 2 1 360 358 358 358 358 357 355 353 353 355 356 354 353 352 350 349 348 346 345 346 343 335 333 332 330 333 337 335 330 327 325 324 323 321 320 319 316 313 312 311 310 311 311
114 108 102 98 95 95 96 97 95 92 88 82 78 74 66 59 54 48 44 40 36 34 32 30 28 26 24 22 20 19 19 18 17 14 12 9 7 6 4 3 3 3 3 2 1 359 358 358 358 358 358 356 355 354 355 356 355 353 353 352 350 349 347 344 346 346 339 338 335 328 330 337 335 329 328 326 324 322 321 320 317 315 313 313 313 313 314 314
112 105 104 104 99 94 93 94 93 88 84 81 75 70 63 55 50 44 40 37 34 32 30 29 27 25 24 22 20 19 18 17 16 12 10 7 6 5 4 3 2 1 1 1 1 359 358 357 357 358 358 358 355 354 354 355 355 354 354 353 352 351 348 345 344 344 340 339 336 330 332 337 335 330 329 326 323 322 320 318 316 315 315 315 315 315 315 315
105 101 100 102 101 97 93 90 88 84 81 79 74 66 58 51 45 40 36 34 32 29 28 27 26 24 22 21 20 19 17 15 13 11 9 7 6 4 3 2 1 0 360 0 0 360 359 358 357 356 358 357 355 354 354 355 355 356 356 355 353 352 350 348 345 342 341 340 336 332 335 337 334 331 329 324 322 320 318 317 317 317 318 318 318 317 316 316
104 100 98 96 95 96 93 86 81 79 77 74 70 62 54 45 39 35 32 30 29 27 26 25 24 22 20 19 18 18 16 14 12 10 8 7 6 3 2 1 0 360 359 359 360 0 0 360 358 356 356 357 356 355 356 356 357 357 357 356 354 352 350 350 348 344 343 343 338 334 335 337 335 331 327 323 322 322 321 321 322 321 321 320 319 319 318 318
104 100 97 93 90 90 88 82 75 74 72 66 61 56 48 40 34 30 28 26 26 25 24 23 21 20 18 17 16 16 15 14 11 9 7 6 5 3 1 0 360 360 359 359 360 0 1 1 360 358 357 357 357 357 356 357 357 357 357 357 355 353 350 350 348 345 344 345 343 338 334 336 337 333 329 327 327 327 327 327 326 324 323 322 321 321 321 320
103 99 95 91 87 83 81 76 69 66 64 56 51 46 38 33 30 27 25 23 22 21 20 19 17 16 15 14 14 14 13 12 10 8 7 5 4 3 1 359 359 360 359 359 359 359 360 1 2 360 359 358 358 357 356 356 357 357 357 357 357 354 352 350 349 346 344 345 346 343 336 335 337 335 332 332 331 330 331 330 328 326 325 324 323 323 323 322
103 98 93 86 81 76 72 68 61 55 51 42 36 33 28 26 25 24 23 20 18 17 16 15 13 12 12 12 12 12 11 11 9 7 6 5 3 2 0 359 359 359 359 359 359 358 358 0 2 1 360 359 358 357 356 356 356 356 356 356 357 357 355 353 350 347 344 343 345 345 339 336 337 336 334 334 334 333 333 331 329 327 326 325 325 325 325 324
103 97 91 81 75 70 65 60 52 42 35 27 23 20 19 19 20 20 19 17 15 13 12 11 10 9 9 9 10 10 10 9 8 5 4 3 2 1 360 359 359 359 359 359 359 358 358 359 1 1 0 360 359 357 356 356 357 357 357 356 356 357 357 355 352 348 346 343 342 343 341 339 338 337 337 337 336 335 333 332 330 328 327 328 328 328 328 327
103 96 88 77 69 65 59 50 41 29 21 16 14 12 12 14 16 16 15 13 11 10 8 8 7 7 7 6 7 7 6 5 5 3 1 1 0 360 359 358 358 358 359 359 359 358 358 358 359 1 1 0 360 358 357 357 357 357 357 356 356 357 357 356 354 350 348 347 344 343 343 342 340 339 339 339 337 336 334 333 332 330 331 331 332 331 331 330
101 94 86 74 62 58 50 40 31 20 12 8 7 7 8 10 12 12 11 9 8 6 5 5 5 5 5 5 5 5 3 2 1 0 359 359 359 359 358 358 358 359 359 359 359 358 358 358 358 360 0 360 360 359 358 357 358 358 357 356 356 357 358 358 356 351 349 349 348 346 345 345 343 342 342 341 338 337 338 336 335 334 335 335 334 334 333 332
99 91 82 68 55 48 40 31 23 14 6 4 4 4 5 7 8 7 6 5 4 3 2 1 2 3 4 5 5 4 3 1 360 359 359 358 358 358 358 358 358 359 359 359 359 358 358 358 358 359 360 360 359 359 359 358 358 357 356 357 357 358 359 359 357 352 349 349 349 348 348 347 346 345 344 342 341 341 341 340 338 337 338 337 336 336 335 333
96 87 75 61 47 37 29 22 16 7 3 2 2 2 4 5 5 3 2 2 1 359 358 358 360 2 3 4 5 4 2 1 360 359 358 358 358 358 358 359 358 358 358 358 358 358 358 358 358 358 359 359 359 359 359 358 357 358 358 358 359 0 0 360 358 354 352 350 348 349 349 348 348 346 345 345 344 344 344 342 339 339 339 339 338 337 336 335
Height
5795 5797 5798 5799 5801 5802 5803 5805 5806 5807 5808 5808 5809 5809 5810 5810 5811 5811 5811 5811 5811 5811 5810 5810 5810 5809 5808 5807 5806 5805 5804 5803 5802 5801 5800 5799 5799 5798 5797 5796 5795 5794 5793 5792 5791 5789 5788 5787 5785 5784 5783 5781 5780 5778 5777 5775 5774 5772 5771 5769 5768 5766 5765 5764 5762 5761 5759 5758 5756 5754 5752 5750 5748 5746 5745 5743 5740 5738 5736 5734 5731 5729 5727 5725 5723 5721 5719 5717
5796 5798 5799 5800 5802 5803 5804 5805 5806 5807 5808 5808 5809 5809 5810 5810 5810 5811 5811 5811 5811 5810 5810 5809 5809 5808 5807 5806 5805 5804 5803 5802 5801 5801 5800 5799 5798 5798 5797 5796 5795 5794 5792 5791 5790 5788 5787 5786 5785 5783 5782 5780 5779 5777 5776 5774 5773 5771 5769 5768 5766 5765 5763 5762 5761 5759 5757 5755 5754 5752 5750 5748 5746 5744 5743 5741 5738 5736 5733 5731 5729 5727 5724 5722 5720 5718 5715 5713
5797 5799 5800 5801 5802 5803 5804 5805 5807 5807 5808 5809 5809 5810 5810 5810 5810 5811 5811 5810 5810 5810 5809 5809 5808 5807 5806 5805 5804 5803 5803 5802 5801 5801 5800 5799 5798 5797 5796 5795 5794 5793 5792 5790 5789 5788 5786 5785 5783 5782 5781 5779 5778 5776 5775 5773 5771 5770 5768 5767 5765 5764 5762 5760 5758 5756 5755 5753 5751 5749 5747 5746 5744 5742 5739 5737 5735 5733 5730 5728 5726 5724 5721 5719 5717 5714 5712 5710
5797 5799 5801 5802 5803 5804 5805 5806 5807 5808 5808 5809 5809 5809 5810 5810 5810 5810 5810 5810 5810 5809 5809 5808 5807 5806 5805 5805 5804 5803 5802 5802 5801 5800 5800 5799 5798 5797 5796 5795 5794 5792 5791 5790 5789 5787 5786 5784 5782 5781 5780 5778 5777 5775 5773 5772 5770 5769 5767 5766 5764 5762 5760 5758 5756 5754 5752 5750 5748 5746 5744 5743 5740 5739 5736 5734 5732 5729 5727 5724 5722 5720 5718 5715 5713 5710 5708 5705
5798 5799 5801 5802 5803 5804 5805 5806 5807 5808 5808 5809 5809 5809 5810 5810 5810 5810 5810 5810 5809 5809 5808 5807 5806 5806 5805 5804 5804 5803 5802 5802 5801 5801 5800 5799 5798 5797 5796 5794 5793 5792 5790 5789 5788 5786 5785 5783 5782 5780 5779 5777 5775 5773 5772 5770 5769 5768 5766 5764 5762 5760 5758 5756 5754 5752 5750 5748 5746 5743 5741 5739 5737 5736 5733 5731 5729 5726 5723 5721 5718 5716 5714 5711 5709 5706 5703 5700
5798 5799 5801 5802 5804 5805 5806 5807 5807 5808 5808 5809 5809 5810 5810 5810 5810 5810 5810 5809 5809 5808 5807 5807 5806 5805 5805 5804 5804 5803 5803 5802 5801 5800 5799 5798 5797 5796 5795 5794 5792 5791 5790 5789 5787 5786 5784 5783 5781 5779 5778 5776 5774 5772 5771 5769 5768 5766 5764 5762 5760 5758 5756 5754 5752 5750 5747 5745 5743 5741 5739 5737 5734 5732 5730 5728 5725 5722 5719 5717 5714 5712 5709 5707 5704 5701 5698 5695
5798 5799 5801 5802 5804 5805 5806 5807 5807 5808 5809 5809 5809 5810 5810 5810 5810 5809 5809 5809 5808 5808 5808 5807 5806 5806 5805 5805 5804 5803 5803 5802 5801 5800 5799 5798 5797 5795 5794 5793 5792 5791 5789 5788 5787 5785 5784 5782 5780 5779 5777 5775 5773 5771 5770 5768 5766 5764 5762 5760 5758 5756 5754 5752 5750 5748 5745 5743 5741 5739 5736 5734 5731 5729 5727 5724 5721 5718 5715 5712 5709 5707 5704 5702 5699 5696 5693 5690
5798 5800 5801 5803 5804 5805 5806 5807 5808 5808 5809 5809 5810 5810 5810 5810 5809 5809 5809 5809 5809 5808 5808 5807 5807 5806 5805 5805 5804 5804 5803 5801 5800 5800 5799 5798 5797 5795 5794 5793 5792 5791 5789 5788 5786 5785 5783 5781 5779 5777 5775 5773 5772 5770 5768 5766 5764 5762 5760 5758 5756 5754 5752 5750 5748 5745 5743 5741 5738 5736 5733 5731 5728 5725 5723 5720 5717 5714 5711 5708 5705 5702 5699 5696 5694 5691 5688 5685
5798 5800 5802 5803 5804 5806 5807 5808 5808 5809 5809 5809 5810 5810 5810 5809 5809 5809 5809 5809 5809 5809 5808 5807 5807 5806 5806 5805 5804 5803 5802 5802 5801 5800 5799 5798 5797 5796 5795 5793 5792 5790 5789 5787 5785 5783 5782 5780 5778 5776 5774 5772 5770 5768 5767 5764 5762 5760 5758 5756 5754 5751 5749 5747 5745 5742 5740 5738 5735 5733 5730 5727 5724 5722 5719 5716 5713 5710 5707 5704 5701 5697 5694 5691 5688 5685 5682 5679
5798 5800 5802 5803 5805 5806 5807 5808 5808 5809 5809 5810 5810 5810 5810 5809 5809 5809 5809 5809 5809 5809 5808 5808 5807 5806 5806 5805 5804 5804 5803 5802 5801 5801 5800 5798 5797 5796 5794 5793 5792 5790 5788 5786 5784 5782 5780 5778 5777 5775 5773 5771 5769 5767 5765 5762 5760 5758 5756 5754 5751 5749 5746 5744 5742 5740 5737 5735 5732 5729 5727 5724 5721 5719 5716 5712 5709 5706 5703 5700 5697 5693 5689 5685 5682 5679 5675 5672
5799 5800 5802 5803 5805 5806 5807 5808 5809 5809 5809 5810 5810 5810 5810 5810 5810 5810 5810 5810 5810 5809 5808 5808 5807 5807 5806 5805 5805 5804 5803 5802 5802 5801 5799 5798 5797 5796 5794 5793 5791 5789 5787 5785 5783 5781 5779 5778 5776 5774 5772 5770 5767 5765 5763 5761 5758 5756 5754 5752 5749 5747 5744 5741 5738 5736 5734 5731 5728 5726 5723 5721 5719 5715 5711 5708 5705 5701 5698 5695 5692 5688 5683 5679 5676 5672 5669 5666
5799 5800 5802 5803 5805 5806 5807 5808 5809 5809 5809 5810 5810 5810 5810 5810 5810 5810 5810 5810 5810 5809 5809 5808 5808 5807 5807 5806 5806 5805 5804 5803 5802 5801 5799 5798 5797 5795 5794 5792 5790 5788 5786 5784 5782 5780 5778 5776 5775 5773 5770 5768 5766 5763 5761 5759 5757 5755 5752 5749 5747 5745 5742 5739 5735 5733 5730 5728 5725 5722 5719 5718 5715 5710 5706 5703 5699 5696 5693 5690 5686 5682 5678 5674 5670 5666 5662 5658
5799 5800 5802 5803 5805 5806 5807 5808 5809 5809 5810 5810 5810 5810 5811 5811 5811 5811 5811 5811 5810 5810 5809 5809 5808 5808 5807 5807 5806 5805 5804 5803 5802 5800 5799 5798 5796 5795 5793 5791 5789 5787 5785 5783 5782 5779 5778 5776 5774 5772 5769 5767 5764 5762 5760 5757 5755 5753 5750 5747 5744 5742 5739 5736 5733 5729 5727 5723 5721 5716 5714 5715 5711 5704 5700 5697 5694 5690 5687 5683 5680 5676 5672 5668 5664 5659 5655 5650
5799 5800 5802 5803 5805 5806 5807 5808 5809 5809 5810 5810 5810 5811 5811 5811 5812 5812 5812 5811 5811 5810 5810 5809 5809 5808 5808 5807 5806 5805 5804 5803 5801 5800 5799 5797 5796 5794 5793 5791 5789 5787 5785 5783 5781 5779 5777 5775 5773 5771 5768 5766 5763 5761 5758 5756 5753 5750 5748 5745 5741 5739 5736 5732 5728 5725 5722 5718 5715 5710 5707 5709 5706 5699 5694 5690 5688 5685 5681 5677 5673 5669 5665 5661 5657 5653 5648 5643
5799 5801 5802 5804 5805 5806 5807 5808 5809 5809 5810 5811 5811 5812 5812 5812 5812 5812 5812 5812 5812 5811 5811 5810 5809 5809 5808 5807 5806 5805 5804 5802 5801 5800 5799 5797 5796 5794 5792 5791 5789 5787 5785 5783 5781 5779 5777 5774 5772 5769 5767 5764 5762 5759 5757 5754 5751 5747 5745 5742 5738 5736 5733 5729 5723 5719 5717 5713 5710 5705 5700 5701 5700 5694 5688 5683 5681 5678 5674 5671 5666 5662 5658 5654 5650 5645 5640 5636
5800 5801 5803 5804 5805 5806 5807 5808 5809 5810 5811 5812 5812 5812 5813 5813 5813 5813 5813 5813 5812 5812 5811 5811 5810 5809 5808 5807 5806 5805 5804 5803 5801 5800 5799 5797 5796 5794 5792 5790 5789 5787 5785 5782 5780 5778 5776 5773 5770 5768 5765 5763 5760 5757 5754 5751 5748 5745 5741 5738 5735 5731 5728 5725 5720 5715 5712 5708 5704 5699 5693 5693 5693 5687 5683 5678 5674 5671 5668 5664 5659 5655 5651 5647 5642 5637 5632 5628
5800 5802 5803 5804 5805 5807 5808 5808 5810 5811 5812 5812 5813 5813 5813 5813 5814 5814 5814 5813 5813 5812 5812 5811 5810 5809 5808 5807 5806 5805 5804 5803 5802 5800 5799 5797 5795 5794 5792 5790 5788 5786 5784 5781 5779 5776 5774 5771 5769 5766 5763 5760 5757 5754 5751 5748 5746 5742 5738 5734 5731 5727 5723 5721 5717 5712 5708 5704 5700 5694 5688 5687 5686 5681 5677 5673 5668 5665 5661 5657 5652 5647 5643 5639 5634 5629 5624 5619
5801 5802 5803 5805 5806 5807 5808 5809 5810 5812 5813 5813 5813 5814 5814 5814 5814 5815 5814 5814 5813 5813 5812 5811 5810 5809 5808 5808 5807 5806 5804 5803 5802 5800 5798 5797 5795 5793 5791 5789 5786 5784 5782 5780 5778 5775 5772 5770 5767 5764 5761 5758 5755 5751 5748 5745 5742 5738 5735 5731 5728 5725 5721 5717 5713 5710 5705 5700 5696 5690 5684 5682 5681 5676 5671 5666 5662 5658 5654 5649 5644 5639 5635 5630 5625 5620 5616 5611
5801 5803 5804 5805 5806 5808 5809 5810 5812 5812 5813 5814 5814 5814 5815 5815 5815 5815 5815 5814 5813 5813 5812 5812 5811 5810 5809 5808 5807 5806 5805 5803 5802 5800 5798 5797 5795 5793 5790 5788 5785 5783 5781 5778 5776 5773 5771 5768 5765 5762 5759 5756 5753 5749 5746 5742 5739 5735 5732 5728 5725 5722 5719 5714 5709 5706 5701 5697 5692 5686 5680 5677 5675 5672 5666 5660 5656 5651 5647 5642 5637 5632 5626 5621 5617 5612 5607 5603
5802 5803 5805 5806 5807 5809 5810 5811 5812 5813 5814 5815 5815 5815 5816 5816 5816 5816 5815 5814 5814 5813 5813 5812 5811 5810 5810 5809 5808 5806 5805 5803 5801 5799 5798 5796 5794 5792 5790 5787 5785 5782 5780 5777 5775 5772 5770 5767 5764 5761 5758 5754 5751 5748 5744 5740 5737 5733 5729 5725 5722 5717 5715 5711 5706 5701 5696 5692 5688 5681 5674 5672 5670 5666 5660 5654 5649 5644 5639 5635 5630 5624 5618 5614 5609 5603 5599 5595
5803 5804 5806 5807 5809 5810 5811 5812 5813 5814 5815 5816 5816 5816 5816 5817 5817 5817 5816 5815 5815 5814 5814 5813 5812 5811 5810 5809 5808 5806 5805 5803 5801 5799 5797 5795 5793 5791 5789 5786 5784 5781 5779 5777 5774 5771 5768 5766 5763 5759 5756 5752 5749 5746 5742 5738 5734 5730 5726 5722 5719 5714 5710 5708 5702 5696 5691 5687 5683 5675 5667 5667 5664 5658 5653 5647 5641 5637 5633 5627 5622 5616 5610 5605 5600 5594 5590 5585
5804 5806 5807 5809 5810 5811 5813 5814 5814 5815 5816 5816 5817 5817 5817 5817 5817 5817 5816 5816 5815 5815 5814 5813 5813 5811 5810 5809 5807 5806 5804 5802 5800 5798 5796 5794 5792 5790 5788 5785 5783 5780 5778 5776 5773 5770 5767 5764 5761 5758 5754 5750 5747 5743 5739 5736 5731 5727 5722 5717 5714 5709 5705 5703 5698 5692 5686 5681 5678 5670 5662 5662 5658 5652 5646 5640 5634 5630 5625 5620 5614 5608 5602 5596 5590 5585 5580 5576
5806 5807 5809 5810 5811 5813 5814 5815 5816 5816 5817 5817 5817 5818 5818 5818 5818 5818 5817 5817 5816 5816 5815 5814 5813 5812 5810 5808 5807 5805 5803 5801 5799 5797 5795 5793 5792 5789 5787 5785 5782 5779 5777 5774 5771 5768 5765 5762 5759 5756 5752 5748 5744 5741 5736 5733 5729 5723 5718 5713 5709 5704 5698 5696 5693 5688 5681 5674 5669 5662 5656 5655 5651 5645 5640 5632 5627 5622 5616 5610 5605 5600 5594 5587 5582 5577 5572 5568
5807 5809 5810 5812 5813 5814 5815 5816 5817 5817 5817 5818 5818 5819 5819 5819 5819 5819 5818 5818 5817 5816 5815 5814 5813 5811 5810 5808 5806 5804 5802 5801 5799 5797 5795 5793 5791 5789 5787 5784 5781 5778 5775 5772 5769 5766 5764 5760 5757 5753 5750 5746 5742 5738 5733 5729 5726 5720 5714 5709 5705 5701 5695 5690 5686 5682 5678 5671 5663 5654 5649 5650 5646 5638 5633 5626 5620 5614 5607 5602 5596 5590 5585 5579 5574 5570 5565 5561
5809 5810 5812 5813 5815 5816 5817 5817 5818 5818 5819 5819 5820 5820 5820 5820 5820 5820 5819 5818 5817 5816 5815 5814 5812 5811 5809 5808 5806 5804 5802 5800 5799 5797 5795 5793 5791 5789 5787 5784 5781 5778 5775 5772 5768 5765 5762 5758 5755 5751 5747 5743 5739 5735 5730 5725 5721 5717 5711 5706 5701 5696 5692 5686 5680 5675 5672 5667 5659 5649 5639 5640 5641 5632 5624 5619 5613 5606 5600 5594 5588 5581 5576 5571 5566 5562 5558 5553
5810 5812 5813 5815 5816 5817 5818 5818 5819 5819 5820 5820 5821 5821 5821 5821 5820 5820 5819 5819 5817 5816 5815 5814 5812 5810 5809 5808 5806 5804 5803 5800 5798 5797 5795 5792 5790 5788 5786 5783 5780 5777 5773 5770 5767 5763 5760 5756 5752 5748 5744 5740 5735 5731 5726 5721 5717 5712 5708 5702 5697 5692 5686 5681 5676 5669 5665 5659 5653 5646 5633 5629 5632 5627 5618 5611 5604 5598 5592 5586 5580 5574 5569 5564 5558 5554 5549 5544
5812 5813 5815 5816 5817 5818 5819 5819 5820 5820 5821 5822 5822 5822 5821 5821 5821 5820 5819 5819 5817 5816 5815 5813 5812 5810 5809 5808 5806 5805 5803 5801 5798 5796 5794 5792 5790 5787 5784 5782 5779 5776 5772 5769 5765 5761 5757 5754 5750 5746 5741 5737 5732 5727 5723 5717 5713 5708 5703 5698 5693 5688 5682 5676 5671 5665 5660 5654 5649 5643 5632 5622 5622 5619 5613 5606 5597 5590 5585 5578 5572 5567 5561 5556 5551 5546 5540 5535
5814 5815 5817 5818 5819 5819 5820 5820 5821 5822 5822 5822 5822 5822 5822 5822 5821 5820 5820 5819 5817 5816 5815 5814 5812 5811 5809 5808 5806 5804 5802 5800 5798 5796 5794 5791 5788 5786 5783 5780 5778 5775 5771 5767 5763 5759 5755 5751 5747 5743 5738 5733 5729 5724 5719 5714 5709 5704 5699 5694 5688 5683 5678 5672 5666 5661 5655 5649 5644 5638 5629 5619 5615 5611 5605 5599 5592 5584 5577 5571 5565 5559 5554 5549 5543 5537 5532 5527
5816 5817 5818 5819 5820 5820 5821 5822 5822 5823 5823 5823 5823 5823 5823 5822 5821 5821 5820 5819 5817 5816 5815 5814 5812 5811 5809 5808 5806 5804 5802 5800 5798 5796 5793 5791 5788 5785 5782 5779 5776 5773 5770 5766 5761 5756 5752 5749 5744 5741 5736 5731 5726 5720 5715 5710 5705 5700 5695 5690 5685 5679 5673 5667 5661 5657 5651 5644 5638 5632 5625 5615 5611 5609 5600 5591 5586 5579 5571 5565 5558 5553 5547 5542 5535 5529 5524 5520
5818 5819 5820 5821 5821 5822 5822 5823 5823 5824 5824 5824 5824 5823 5823 5822 5821 5821 5819 5818 5817 5816 5815 5814 5812 5811 5809 5808 5805 5803 5801 5799 5797 5795 5793 5790 5787 5785 5781 5778 5775 5771 5768 5764 5759 5754 5749 5746 5742 5738 5734 5729 5725 5719 5713 5707 5701 5696 5690 5686 5683 5679 5673 5666 5659 5653 5648 5643 5635 5627 5621 5610 5602 5602 5596 5586 5581 5574 5566 5559 5552 5546 5540 5534 5527 5522 5516 5511
5819 5820 5821 5822 5823 5823 5823 5824 5824 5824 5824 5824 5824 5824 5823 5822 5822 5821 5820 5819 5818 5817 5816 5814 5812 5811 5809 5807 5805 5803 5801 5799 5797 5794 5792 5789 5787 5784 5781 5777 5774 5771 5769 5765 5760 5754 5748 5744 5740 5736 5732 5727 5723 5718 5711 5705 5698 5692 5685 5679 5675 5673 5670 5665 5658 5650 5642 5637 5630 5622 5617 5606 5596 5592 5587 5580 5575 5568 5561 5553 5546 5539 5532 5525 5519 5513 5508 5502
5821 5822 5823 5823 5824 5824 5824 5825 5825 5825 5825 5825 5825 5824 5824 5823 5822 5821 5820 5819 5818 5817 5816 5814 5812 5811 5809 5807 5805 5803 5801 5799 5797 5795 5792 5790 5787 5784 5781 5777 5774 5771 5768 5765 5761 5755 5748 5744 5739 5734 5730 5725 5720 5716 5711 5704 5697 5689 5682 5674 5666 5661 5657 5654 5649 5642 5635 5630 5623 5616 5610 5602 5593 5585 5577 5571 5566 5559 5553 5546 5538 5531 5524 5517 5511 5506 5501 5495
5823 5823 5824 5824 5825 5825 5825 5826 5826 5826 5825 5825 5825 5824 5824 5823 5822 5822 5821 5819 5818 5817 5816 5814 5812 5811 5809 5807 5805 5803 5801 5799 5797 5794 5792 5789 5786 5783 5779 5776 5772 5768 5764 5761 5759 5755 5749 5743 5738 5732 5727 5722 5716 5710 5705 5700 5693 5685 5677 5668 5658 5650 5643 5638 5635 5630 5624 5622 5617 5609 5600 5592 5587 5580 5571 5564 5557 5550 5544 5537 5530 5523 5516 5509 5504 5499 5494 5488
5824 5825 5825 5826 5826 5826 5826 5827 5826 5826 5826 5826 5825 5825 5824 5824 5823 5822 5821 5820 5819 5817 5816 5814 5813 5811 5809 5807 5805 5803 5801 5799 5796 5794 5791 5788 5785 5782 5778 5774 5770 5766 5762 5758 5755 5752 5746 5739 5734 5729 5722 5717 5711 5704 5697 5692 5686 5680 5672 5663 5654 5646 5637 5630 5625 5618 5610 5608 5607 5602 5591 5582 5576 5571 5564 5557 5550 5543 5537 5530 5523 5516 5510 5503 5498 5493 5486 5479
5825 5826 5826 5827 5827 5827 5827 5827 5827 5827 5827 5826 5826 5825 5825 5824 5824 5823 5821 5820 5819 5817 5816 5814 5813 5811 5809 5807 5805 5803 5801 5798 5796 5793 5790 5787 5784 5781 5777 5773 5769 5765 5760 5756 5752 5749 5744 5736 5729 5724 5718 5712 5707 5701 5694 5688 5681 5675 5668 5660 5652 5645 5637 5630 5625 5617 5605 5597 5597 5595 5586 5576 5568 5562 5556 5549 5541 5535 5528 5521 5515 5510 5505 5499 5492 5485 5477 5469
5826 5827 5827 5828 5828 5828 5828 5828 5828 5828 5827 5827 5826 5826 5825 5825 5824 5823 5821 5820 5818 5817 5816 5814 5812 5811 5809 5807 5805 5803 5800 5798 5795 5792 5789 5787 5783 5780 5776 5772 5768 5764 5759 5754 5749 5746 5743 5736 5728 5722 5716 5710 5704 5698 5690 5683 5676 5669 5663 5657 5650 5643 5634 5626 5622 5618 5607 5595 5590 5587 5579 5570 5562 5554 5548 5541 5532 5526 5519 5513 5509 5505 5499 5492 5484 5475 5466 5457
5827 5828 5828 5828 5829 5829 5829 5829 5828 5828 5828 5828 5827 5827 5826 5825 5824 5823 5821 5820 5819 5817 5816 5814 5813 5811 5809 5807 5805 5802 5800 5797 5794 5792 5788 5785 5782 5778 5775 5771 5767 5763 5758 5753 5748 5743 5740 5736 5729 5721 5715 5708 5702 5696 5688 5680 5672 5665 5659 5653 5647 5640 5632 5621 5611 5606 5599 5587 5581 5578 5570 5561 5555 5547 5540 5534 5525 5518 5512 5506 5502 5497 5490 5482 5473 5464 5455 5446
5829 5829 5829 5829 5829 5829 5829 5829 5829 5829 5829 5829 5828 5827 5827 5826 5824 5823 5822 5820 5819 5817 5816 5814 5813 5811 5809 5807 5805 5802 5799 5796 5794 5791 5788 5784 5781 5777 5774 5770 5766 5762 5757 5752 5747 5741 5737 5733 5727 5720 5712 5705 5698 5693 5687 5679 5671 5663 5656 5648 5640 5632 5625 5616 5605 5595 5586 5574 5567 5567 5562 5554 5549 5541 5532 5526 5519 5512 5506 5501 5495 5488 5480 5471 5462 5453 5444 5435
5830 5830 5830 5830 5830 5830 5830 5830 5830 5830 5830 5829 5828 5828 5827 5826 5824 5823 5822 5820 5819 5818 5816 5814 5813 5811 5809 5806 5804 5802 5799 5796 5793 5790 5787 5783 5780 5776 5772 5768 5764 5760 5755 5750 5745 5739 5733 5728 5723 5716 5709 5701 5695 5690 5684 5677 5669 5661 5653 5646 5638 5629 5620 5613 5605 5595 5583 5570 5559 5554 5550 5545 5540 5534 5526 5519 5511 5504 5498 5492 5486 5478 5469 5460 5450 5440 5431 5422
5831 5831 5831 5831 5831 5831 5831 5831 5831 5830 5830 5830 5829 5828 5827 5826 5825 5823 5822 5821 5819 5818 5816 5815 5813 5811 5808 5806 5803 5801 5798 5795 5792 5789 5786 5782 5779 5775 5771 5767 5762 5758 5754 5748 5743 5737 5731 5725 5720 5715 5708 5700 5691 5684 5678 5672 5665 5657 5649 5641 5633 5626 5619 5611 5605 5598 5585 5571 5558 5546 5538 5537 5535 5527 5518 5511 5502 5495 5489 5482 5475 5466 5456 5447 5436 5426 5416 5407
5832 5831 5832 5832 5832 5832 5832 5832 5832 5831 5830 5830 5829 5828 5827 5826 5825 5823 5822 5821 5819 5818 5816 5814 5813 5810 5808 5806 5803 5800 5797 5794 5791 5788 5785 5781 5778 5774 5770 5765 5761 5756 5751 5746 5741 5736 5729 5723 5717 5712 5706 5697 5688 5680 5673 5667 5659 5651 5644 5636 5628 5620 5612 5602 5596 5592 5583 5572 5561 5547 5533 5530 5529 5519 5510 5503 5494 5487 5481 5472 5464 5454 5444 5435 5425 5416 5406 5396
5833 5832 5833 5833 5833 5833 5833 5832 5832 5831 5831 5830 5830 5829 5828 5826 5825 5824 5822 5821 5819 5818 5816 5814 5812 5810 5808 5805 5802 5800 5797 5794 5791 5788 5784 5780 5776 5772 5768 5764 5759 5754 5749 5744 5739 5734 5728 5722 5715 5709 5703 5695 5688 5680 5673 5666 5659 5651 5642 5634 5625 5616 5607 5597 5586 5579 5575 5568 5561 5549 5533 5527 5523 5513 5505 5497 5487 5480 5474 5464 5454 5445 5436 5426 5416 5407 5398 5388
5834 5834 5834 5834 5833 5833 5833 5833 5832 5832 5831 5831 5830 5829 5828 5826 5825 5824 5822 5821 5819 5818 5816 5814 5812 5810 5807 5805 5802 5799 5796 5793 5790 5787 5783 5779 5775 5771 5767 5762 5758 5752 5747 5741 5736 5731 5726 5720 5714 5710 5707 5702 5695 5687 5678 5669 5659 5650 5640 5631 5622 5615 5607 5599 5588 5577 5568 5561 5553 5543 5532 5525 5518 5509 5501 5492 5483 5477 5470 5459 5448 5437 5427 5417 5407 5397 5388 5380
5835 5835 5835 5835 5835 5834 5834 5833 5833 5832 5831 5831 5830 5829 5828 5826 5825 5824 5822 5821 5819 5817 5815 5813 5811 5809 5806 5804 5801 5798 5795 5792 5789 5786 5782 5778 5774 5770 5766 5761 5756 5751 5745 5740 5734 5727 5721 5715 5708 5702 5698 5695 5689 5681 5673 5664 5654 5644 5635 5627 5619 5612 5605 5598 5591 5580 5568 5560 5551 5538 5526 5521 5516 5508 5499 5489 5480 5472 5463 5451 5440 5427 5415 5405 5395 5386 5378 5369
5835 5836 5836 5836 5836 5835 5834 5833 5833 5833 5832 5831 5830 5829 5828 5827 5825 5824 5822 5821 5819 5817 5815 5813 5811 5808 5805 5803 5800 5797 5794 5791 5788 5785 5781 5778 5774 5769 5765 5760 5755 5749 5744 5738 5732 5725 5719 5713 5704 5694 5685 5677 5670 5663 5657 5652 5647 5640 5633 5626 5617 5608 5600 5593 5585 5575 5564 5556 5549 5536 5520 5513 5511 5503 5492 5482 5470 5459 5449 5439 5428 5416 5405 5395 5385 5376 5367 5358
5836 5837 5837 5837 5836 5835 5834 5834 5834 5833 5832 5831 5830 5829 5828 5827 5825 5824 5822 5821 5819 5817 5815 5813 5810 5808 5805 5802 5799 5796 5794 5791 5787 5784 5780 5777 5773 5768 5764 5758 5753 5748 5742 5736 5730 5724 5718 5712 5704 5694 5685 5677 5669 5662 5655 5648 5643 5637 5631 5625 5618 5607 5596 5587 5578 5569 5559 5549 5543 5536 5518 5503 5498 5491 5479 5469 5458 5446 5435 5425 5415 5404 5395 5385 5376 5368 5359 5350
5837 5837 5837 5837 5837 5836 5835 5834 5834 5833 5833 5832 5830 5829 5828 5827 5825 5824 5822 5820 5818 5816 5814 5812 5810 5807 5804 5802 5799 5796 5793 5790 5786 5783 5779 5775 5771 5767 5762 5757 5752 5746 5741 5735 5729 5723 5717 5711 5705 5696 5687 5681 5673 5665 5657 5649 5641 5633 5625 5618 5613 5606 5595 5585 5575 5566 5556 5542 5532 5526 5515 5499 5488 5479 5468 5458 5447 5435 5425 5414 5404 5394 5385 5377 5369 5361 5352 5342
5838 5838 5838 5838 5837 5836 5835 5835 5835 5834 5833 5832 5830 5829 5828 5826 5825 5823 5822 5820 5818 5816 5814 5812 5809 5806 5804 5801 5798 5795 5792 5789 5785 5782 5778 5774 5770 5765 5760 5755 5750 5745 5739 5734 5727 5721 5715 5709 5705 5698 5689 5681 5674 5665 5657 5650 5641 5632 5623 5614 5607 5601 5593 5583 5573 5562 5551 5537 5522 5514 5507 5495 5482 5472 5461 5451 5439 5427 5417 5408 5398 5389 5379 5370 5361 5352 5342 5331
5839 5838 5838 5838 5838 5837 5836 5836 5835 5834 5833 5832 5830 5829 5827 5826 5825 5823 5821 5820 5818 5815 5813 5811 5808 5805 5803 5800 5797 5794 5791 5788 5785 5781 5777 5773 5769 5765 5760 5754 5749 5744 5738 5732 5726 5720 5713 5707 5702 5697 5689 5681 5674 5666 5656 5649 5641 5632 5623 5613 5604 5598 5591 5582 5571 5558 5546 5535 5523 5510 5500 5490 5479 5467 5455 5443 5432 5422 5414 5405 5394 5384 5373 5363 5353 5343 5332 5321
5839 5839 5839 5838 5838 5837 5836 5836 5835 5834 5833 5832 5830 5829 5827 5826 5824 5822 5821 5819 5817 5815 5812 5810 5807 5805 5802 5799 5796 5793 5790 5787 5783 5780 5776 5772 5767 5763 5758 5753 5748 5742 5736 5730 5724 5718 5711 5705 5699 5694 5689 5682 5675 5668 5657 5647 5638 5630 5623 5616 5607 5598 5589 5577 5563 5550 5537 5527 5517 5505 5493 5483 5472 5460 5447 5437 5429 5420 5410 5399 5387 5376 5364 5354 5343 5333 5322 5312
5840 5839 5839 5839 5838 5838 5837 5836 5835 5834 5833 5832 5830 5829 5827 5825 5824 5822 5820 5818 5816 5814 5811 5809 5806 5804 5801 5798 5795 5792 5789 5785 5782 5778 5774 5770 5766 5761 5757 5752 5746 5740 5734 5728 5721 5716 5709 5703 5697 5692 5686 5679 5672 5666 5658 5649 5640 5632 5625 5617 5604 5590 5577 5566 5555 5543 5530 5517 5506 5497 5486 5473 5461 5451 5442 5435 5425 5413 5402 5389 5376 5366 5356 5345 5334 5323 5312 5302
5840 5840 5839 5839 5839 5838 5837 5836 5835 5834 5833 5831 5830 5828 5827 5825 5823 5821 5819 5817 5815 5813 5810 5808 5805 5803 5800 5797 5794 5791 5788 5784 5780 5776 5772 5769 5764 5760 5755 5750 5744 5738 5732 5726 5719 5713 5707 5700 5694 5688 5683 5676 5669 5660 5652 5645 5638 5628 5614 5602 5592 5580 5568 5559 5551 5542 5530 5516 5503 5492 5480 5468 5457 5447 5436 5425 5414 5402 5390 5378 5366 5356 5347 5338 5327 5315 5304 5294